Dewpoint
39 39 38 38 38 38 38 37 37 39 39 39 39 38 39 39 39 40 37 39 35 29 27 29 27 24 27 24 20 24 22 26 25 21 19 17 15 15 14 13 17 19 19 17 20 20 18 30 31 28 31 33 31 31
40 39 38 38 38 39 38 39 38 39 38 39 40 39 39 39 38 39 34 38 37 33 31 30 30 29 22 23 24 27 23 22 24 21 23 18 13 12 9 5 5 7 11 9 15 19 26 31 30 32 34 35 33 30
40 40 38 36 37 38 39 39 38 38 39 38 38 38 39 39 39 38 35 36 34 32 26 23 21 26 31 29 29 24 25 24 24 27 23 18 13 11 4 2 6 6 11 16 12 19 21 30 33 32 31 34 37 35
41 41 39 39 39 39 39 39 39 39 38 38 38 39 39 38 40 38 34 35 35 28 24 19 28 26 30 30 30 28 29 28 26 23 20 17 12 12 5 5 6 6 7 3 4 1 8 30 28 26 26 35 38 36
41 41 41 40 40 40 39 39 39 38 38 39 39 39 39 41 39 38 38 38 36 29 22 21 27 27 28 31 30 29 28 27 22 19 20 16 12 15 10 12 8 6 2 4 -1 3 10 12 15 20 20 31 36 36
40 40 40 40 40 40 39 39 39 39 40 40 39 40 40 39 38 35 32 35 38 34 27 20 25 25 26 30 29 29 28 26 22 19 19 17 17 15 9 4 4 4 9 8 6 5 8 13 16 17 18 19 28 35
41 40 39 39 40 40 40 40 40 39 39 39 39 40 38 38 37 33 31 35 37 35 28 22 18 23 25 27 28 27 28 25 24 23 21 18 15 19 13 8 8 6 6 9 10 10 11 13 13 13 13 15 16 20
41 40 40 40 40 40 41 40 40 38 38 39 39 38 38 36 36 34 38 38 38 31 28 22 19 19 24 23 23 26 25 27 25 22 20 18 14 17 13 9 7 7 8 11 11 12 14 16 16 15 15 15 15 17
40 40 40 41 40 40 39 39 39 39 38 38 36 34 34 34 33 35 38 37 36 32 26 23 16 15 23 23 26 27 26 20 23 19 15 16 11 11 10 12 16 17 15 18 19 18 15 17 16 17 16 14 17 19
38 38 38 38 37 37 37 37 37 37 37 34 31 29 29 34 37 34 29 31 30 28 28 20 20 18 21 20 20 19 21 18 13 13 18 17 12 13 19 29 31 30 29 29 30 25 19 18 16 19 18 18 20 24
38 38 37 37 36 35 35 37 37 36 34 31 30 29 34 37 29 26 24 23 23 20 21 19 18 14 23 18 18 21 20 17 15 12 15 15 17 24 31 30 32 32 32 32 33 28 20 18 19 25 27 28 28 29
36 37 38 38 38 37 36 36 35 33 30 31 30 34 32 26 23 20 18 18 17 9 15 15 18 21 22 25 22 23 19 17 12 16 18 16 19 29 29 30 31 32 31 28 25 23 22 27 30 32 32 33 31 31
37 37 37 37 37 38 39 37 36 36 35 30 28 24 22 21 16 14 8 9 14 17 18 20 21 24 26 27 24 22 17 14 18 18 14 15 24 28 29 30 31 31 29 28 28 30 31 32 32 31 30 30 30 29
38 38 37 37 36 37 37 38 36 36 30 25 22 15 15 14 13 13 10 12 18 20 22 23 25 24 25 24 22 18 18 20 15 15 10 21 26 28 29 30 30 31 31 31 31 31 31 30 30 30 30 30 30 29
37 37 37 35 36 37 37 38 35 31 23 17 20 12 13 15 18 20 22 22 21 24 26 27 26 26 24 22 21 19 17 14 15 14 21 26 26 25 25 28 29 29 30 30 31 30 30 30 30 29 30 30 29 29
37 37 34 35 37 38 38 36 31 30 26 21 19 19 20 20 21 24 24 25 27 28 28 26 24 22 20 20 19 16 14 16 21 24 26 25 23 24 25 27 28 29 30 29 31 31 31 30 30 30 31 30 30 30
37 29 32 36 38 38 36 32 29 24 21 19 20 25 24 22 21 24 24 24 29 26 21 22 20 19 24 20 18 22 20 24 26 26 25 24 24 25 25 26 28 28 29 30 29 29 30 30 31 30 29 29 30 29
32 33 36 38 37 35 32 32 27 23 21 22 22 23 25 25 24 24 26 28 27 23 23 20 22 18 17 15 18 24 26 27 26 25 25 26 26 26 25 24 27 27 27 28 31 31 29 28 28 28 29 29 29 28
34 36 37 37 36 33 27 26 29 22 21 23 24 25 25 25 26 25 26 26 26 27 24 23 20 17 15 22 23 24 24 24 24 26 26 26 26 26 24 24 27 28 29 30 31 31 31 31 30 29 28 28 27 27
36 36 35 36 35 29 24 24 30 25 22 24 27 25 25 25 25 28 28 27 27 28 24 22 17 18 22 26 27 26 27 27 25 23 23 24 24 24 23 23 24 27 27 28 29 31 32 32 32 30 30 28 27 28
33 33 33 31 29 30 28 26 24 23 25 24 26 26 22 26 25 24 25 28 27 24 20 22 24 27 28 28 28 27 26 25 24 23 22 20 21 22 22 23 24 26 26 26 27 28 30 30 32 33 32 32 33 33
31 32 30 32 27 28 25 25 25 26 24 21 22 23 21 21 22 25 26 25 22 22 24 25 27 26 26 26 25 25 24 23 22 21 22 22 21 21 21 22 23 24 26 26 26 27 28 30 30 31 32 32 31 32
32 30 28 22 23 22 21 17 22 25 20 20 18 16 15 14 17 24 21 20 21 24 25 26 26 27 26 25 22 22 22 21 21 21 21 21 21 21 21 24 26 25 25 24 25 26 26 28 29 30 30 31 31 30
24 21 18 14 12 13 13 16 11 17 19 14 8 5 3 8 14 9 16 17 20 22 22 24 25 24 24 22 19 19 20 21 20 20 21 21 20 21 24 24 24 24 25 25 23 24 25 26 27 28 29 29 29 29
20 12 9 3 4 4 8 6 8 11 9 2 -13 -10 5 12 6 5 15 15 18 19 19 21 23 23 21 21 19 20 20 20 20 19 21 22 21 22 24 24 23 23 23 24 23 23 23 23 25 26 27 27 26 28
11 10 6 2 0 -1 -2 -2 3 5 -3 0 6 9 11 11 8 9 11 14 16 17 18 18 18 19 19 19 18 18 18 20 22 19 19 20 20 20 19 19 19 20 22 23 23 23 22 22 22 22 23 25 26 26
6 8 4 1 -1 -3 2 4 1 1 5 6 7 6 7 6 6 11 15 16 15 17 18 18 19 19 18 18 18 18 17 17 20 21 21 20 19 19 19 18 17 19 20 21 22 22 22 22 22 22 21 22 23 25
3 3 -7 1 3 3 2 3 4 5 7 6 3 4 4 5 6 12 13 16 17 18 17 18 19 18 17 17 17 16 16 17 17 22 22 17 18 18 18 19 20 19 20 21 21 22 22 22 22 22 22 22 23 25
4 5 1 -4 2 6 6 4 5 8 8 4 4 1 1 8 14 14 15 16 17 16 15 15 15 17 17 17 16 16 15 15 13 12 12 13 14 15 17 17 18 19 19 19 19 20 21 22 23 23 23 24 24 25
5 4 1 -0 -2 -2 4 7 8 12 8 4 4 3 3 9 15 16 16 16 15 15 15 15 15 15 13 14 13 14 14 14 13 12 12 12 13 14 15 16 16 17 18 18 18 19 20 22 23 22 23 22 22 21
7 7 4 3 3 6 9 8 7 6 6 7 8 6 6 10 13 15 15 15 16 15 15 14 14 14 13 12 11 10 10 13 11 12 11 13 13 13 14 13 15 16 16 17 17 18 19 20 21 21 20 20 20 19
7 5 4 2 4 8 6 7 7 7 7 8 8 11 11 11 9 12 14 15 14 14 14 14 13 13 13 12 11 10 8 9 9 9 10 10 12 12 12 13 14 14 14 15 16 17 18 19 20 20 19 19 18 17
3 4 4 5 5 4 6 5 4 5 7 8 9 11 11 9 7 12 15 15 14 14 14 14 14 14 12 11 8 8 8 8 7 7 6 6 6 6 9 12 12 13 13 14 15 16 17 18 19 19 18 17 17 17
Wind_Speed
25 19 16 18 18 16 16 14 10 3 2 7 12 14 14 19 24 16 5 17 11 7 5 9 8 8 7 5 4 4 3 4 4 4 4 2 4 4 5 4 5 6 10 6 12 7 4 25 12 4 8 6 5 7
24 17 14 15 16 14 16 11 6 5 5 2 12 14 15 18 20 12 4 5 8 3 2 8 10 7 3 1 4 3 3 1 2 4 2 3 4 3 4 5 2 4 3 5 4 7 5 6 14 14 15 7 7 5
22 16 13 13 14 16 14 8 2 9 9 10 10 7 9 15 21 9 7 8 3 5 6 5 6 8 10 11 7 5 4 1 2 2 4 3 5 4 6 5 7 4 5 4 9 2 9 0 7 10 14 16 7 5
22 17 12 15 15 14 15 15 15 13 11 8 5 6 10 13 22 12 7 9 3 2 3 3 2 4 3 9 15 13 3 2 0 3 4 5 6 3 7 9 15 12 9 6 9 6 10 4 4 9 11 11 8 4
19 17 17 18 18 16 14 12 10 6 6 10 11 9 12 20 18 13 8 8 2 2 1 3 2 2 3 7 10 13 14 12 8 5 5 8 6 6 9 8 12 6 7 5 8 10 7 13 11 11 10 7 10 6
16 16 16 17 16 15 13 12 14 18 15 13 17 19 20 19 19 6 3 6 2 2 2 4 2 2 2 5 8 9 11 10 9 6 7 6 6 6 8 13 15 11 13 13 15 13 9 15 14 11 9 8 4 5
16 13 12 14 16 15 14 19 21 20 19 20 19 19 14 9 4 3 2 3 6 2 2 2 4 3 1 3 4 5 7 7 9 8 9 14 13 8 16 25 24 22 17 17 18 15 17 14 14 10 12 11 10 8
19 17 17 16 17 20 20 19 18 19 20 21 19 12 7 4 6 7 7 6 4 2 1 1 2 4 1 3 4 2 5 6 7 8 5 10 10 9 11 19 21 20 17 14 17 17 15 16 16 15 15 12 12 10
24 21 20 21 21 21 20 19 18 15 12 9 4 1 1 6 4 3 6 7 6 1 1 1 2 2 1 1 1 3 3 5 0 7 9 6 11 11 15 25 26 26 21 18 17 16 14 13 13 11 11 9 10 9
20 20 19 18 16 14 13 13 13 11 6 4 2 2 3 2 4 7 0 0 1 1 1 2 0 1 3 1 0 3 1 3 4 2 2 5 8 17 19 22 27 29 26 20 17 20 16 12 10 9 10 7 8 7
16 15 14 13 12 13 14 13 11 11 1 3 4 2 0 3 2 2 0 1 1 2 2 0 2 2 1 2 1 1 2 2 3 1 3 3 5 16 21 24 20 15 10 10 14 16 8 6 5 5 4 5 7 8
17 14 13 14 14 13 14 15 11 5 4 3 3 1 1 2 1 2 1 1 3 1 2 2 1 2 0 1 2 3 3 2 4 3 3 3 10 20 24 26 25 16 8 5 4 5 4 2 3 3 1 1 10 13
13 12 12 12 14 14 13 13 8 6 2 2 1 1 2 1 2 1 0 1 1 2 2 1 2 2 3 3 3 3 4 4 3 3 3 4 14 18 18 20 20 19 13 8 7 6 6 8 9 8 8 10 14 16
12 13 15 11 13 15 15 13 11 5 3 2 2 3 2 2 3 2 2 1 1 2 3 6 5 4 3 3 2 3 2 3 3 3 1 6 12 16 18 18 18 17 15 10 10 8 8 10 13 12 10 10 14 15
14 15 15 4 14 17 16 15 8 2 3 3 2 3 5 3 4 3 3 4 3 4 6 5 4 4 5 3 4 3 3 4 4 1 2 7 12 14 16 15 17 17 16 13 10 7 8 9 10 10 9 9 11 10
15 15 2 11 17 18 17 11 2 2 2 3 5 4 5 4 5 4 6 6 2 2 2 4 4 3 4 3 4 5 3 1 3 3 4 6 10 12 13 13 13 13 13 12 9 6 4 3 7 8 7 7 8 6
12 3 4 15 20 18 8 2 2 3 4 4 4 5 7 7 8 6 4 4 4 2 2 3 4 3 1 4 4 3 1 4 4 3 4 6 9 11 11 11 12 12 12 13 10 7 5 2 3 5 5 4 5 5
4 6 14 17 16 9 2 2 2 3 5 5 5 3 4 6 7 7 5 6 6 4 3 3 3 3 4 3 1 3 1 1 1 1 3 5 7 8 8 11 12 12 13 11 9 6 1 1 2 2 2 5 6 6
11 13 14 12 8 4 3 2 2 3 4 4 5 5 5 6 8 11 7 6 8 4 3 4 4 5 6 3 4 2 2 1 1 3 4 3 5 8 9 10 10 11 12 12 10 8 7 6 6 4 4 5 5 4
10 8 8 9 3 3 3 2 1 4 4 3 5 7 6 6 5 4 5 6 8 5 8 6 8 6 4 3 2 2 2 2 2 4 4 4 6 9 9 10 10 12 10 10 10 9 8 7 8 8 7 7 5 6
3 3 9 2 2 2 2 3 3 3 5 4 5 6 7 6 7 6 7 6 9 7 9 9 6 4 5 6 5 5 4 1 1 2 5 7 8 8 8 8 9 9 8 9 10 11 11 10 9 8 8 8 7 4
2 8 2 5 1 2 3 1 5 8 5 6 7 5 6 6 4 2 6 2 5 6 6 6 3 9 7 7 6 4 3 1 1 1 2 4 7 8 8 7 9 8 8 9 9 10 11 11 11 4 7 8 4 4
3 2 1 3 1 1 1 6 3 3 4 6 5 5 4 6 4 3 1 2 3 5 6 4 6 7 6 5 6 5 5 4 2 3 3 5 5 5 6 5 6 7 7 9 9 9 10 12 12 10 6 3 3 5
3 3 2 2 4 2 5 3 4 4 4 5 6 8 10 8 10 10 2 3 6 10 11 10 3 3 3 3 5 5 6 4 3 2 3 4 4 5 3 5 6 7 8 8 9 9 10 10 11 11 10 6 3 1
3 2 1 1 2 2 3 5 5 3 3 5 6 6 5 7 6 10 4 5 10 11 11 11 9 5 4 3 3 4 6 5 4 3 6 5 3 4 4 5 5 8 10 10 10 10 10 10 10 10 9 9 8 4
5 1 2 3 1 0 1 2 2 3 4 3 3 6 4 5 4 4 3 7 7 8 11 11 11 8 4 6 5 6 7 6 4 4 5 6 7 6 5 5 6 6 11 10 10 10 11 10 10 11 9 8 8 8
5 6 4 2 2 1 1 2 3 3 3 3 3 4 4 3 0 2 3 5 7 9 8 8 7 6 5 5 6 6 7 6 4 3 3 5 8 7 6 6 8 10 11 11 10 9 10 10 10 10 10 9 7 7
3 6 7 7 4 3 3 2 3 4 3 3 3 3 2 3 1 1 2 5 6 7 5 5 5 5 5 5 6 8 6 9 3 4 2 2 3 7 9 8 8 11 10 10 10 10 9 9 10 10 10 10 9 7
4 6 6 4 3 4 6 6 4 4 5 4 3 3 4 3 2 2 1 3 4 4 4 4 4 2 2 4 6 8 9 10 7 5 4 4 4 6 12 11 11 11 11 13 13 11 11 10 10 10 10 9 8 7
6 7 4 4 5 7 6 8 4 2 4 5 7 11 13 11 6 4 5 5 4 2 1 2 3 4 4 3 4 5 7 8 8 6 5 6 8 11 11 12 12 12 12 12 13 14 12 10 9 7 6 7 6 7
7 5 4 4 4 3 3 1 3 4 4 6 8 12 14 5 3 7 7 6 5 5 5 4 2 1 2 3 4 4 2 4 7 6 6 6 7 9 10 11 11 11 11 12 12 11 12 11 8 8 7 7 8 8
4 6 6 6 3 2 1 2 2 3 3 4 5 6 4 5 4 5 8 10 9 9 7 5 5 4 3 2 1 1 3 5 6 7 8 8 8 9 11 11 10 10 11 12 11 11 11 10 8 7 7 8 8 8
3 2 1 2 2 3 2 2 2 4 4 4 5 6 8 5 6 4 6 8 8 8 8 6 4 6 6 3 2 3 3 4 6 6 7 7 7 8 8 9 10 10 11 11 11 11 11 10 8 7 6 5 6 7
Wind_Direction
341 344 343 347 345 352 1 11 28 152 160 173 198 209 202 188 188 194 129 184 185 216 197 210 214 180 171 205 202 142 203 205 212 247 267 295 289 360 289 322 349 315 319 357 336 261 223 352 342 274 355 11 25 99
351 350 349 1 8 3 2 0 33 80 132 149 153 171 183 185 181 136 128 123 98 165 242 220 237 254 245 311 225 202 317 207 251 267 241 277 264 243 297 313 320 351 336 319 292 325 279 338 354 324 338 341 28 66
354 355 3 7 6 359 7 14 55 55 94 110 127 153 179 167 168 131 127 127 114 190 190 212 225 225 234 230 232 244 209 186 195 359 333 309 274 306 293 306 298 313 308 258 323 285 273 109 281 326 344 347 9 4
4 17 21 18 23 41 47 59 75 81 83 89 115 149 154 155 160 130 143 169 215 147 211 156 146 214 215 215 217 227 278 127 74 261 254 262 268 224 282 296 286 282 288 294 287 313 326 213 273 338 345 0 342 189
22 38 48 51 48 47 57 57 46 63 72 89 85 115 115 137 125 106 138 183 275 294 162 158 206 151 240 204 207 216 220 240 249 239 239 255 271 272 259 278 266 238 247 255 296 312 297 304 320 319 318 340 7 39
41 47 46 42 40 44 62 49 47 75 76 116 94 111 118 128 134 139 92 213 207 9 324 186 92 142 104 185 198 205 216 228 235 235 256 253 267 267 274 275 282 266 253 269 277 292 278 290 294 305 307 337 318 339
42 45 37 36 49 50 52 85 86 78 72 99 103 92 81 100 112 52 44 97 148 158 259 220 170 123 62 168 176 196 198 220 239 250 247 265 266 207 270 268 271 280 270 271 277 276 268 263 267 268 296 300 310 300
39 49 52 56 50 68 81 91 86 84 82 88 96 105 89 54 82 55 58 62 51 133 338 252 162 175 14 188 200 200 221 222 228 248 250 259 265 243 267 273 288 292 290 280 268 266 268 274 277 274 279 279 281 276
48 49 53 64 62 63 66 66 69 79 88 89 80 270 292 30 37 42 66 66 56 14 218 239 243 134 357 154 271 189 242 247 228 258 266 278 256 239 275 304 303 299 287 281 280 273 263 260 268 273 261 242 248 253
53 53 56 55 49 46 38 22 5 345 325 308 339 34 53 37 332 299 337 43 328 326 273 268 51 210 298 325 189 292 283 292 283 279 317 251 264 267 295 296 287 284 275 271 256 253 241 244 240 253 253 239 241 217
39 39 44 42 33 27 15 4 352 346 34 35 32 47 337 291 284 2 312 289 265 218 197 187 270 299 83 270 280 8 291 270 265 251 277 278 281 320 322 326 330 326 260 244 237 242 242 232 251 247 298 252 225 182
14 15 22 18 9 5 2 2 358 23 34 44 66 159 260 326 255 245 227 256 236 65 163 266 59 289 215 226 257 180 250 240 261 330 267 263 327 331 346 353 6 24 54 98 127 183 196 264 326 346 4 246 159 130
348 352 350 354 2 0 354 355 3 94 193 207 196 147 286 279 230 224 209 195 242 180 197 232 263 251 192 221 240 219 230 243 304 240 277 355 345 347 351 355 7 21 40 56 65 74 91 83 70 78 96 113 124 113
333 333 333 323 346 347 349 347 348 274 288 303 323 304 269 249 246 231 278 4 51 244 235 280 268 227 178 227 249 254 197 251 243 235 192 353 347 341 355 359 9 10 13 23 40 50 66 87 88 76 78 90 103 110
325 321 322 321 339 336 334 336 330 282 270 273 247 247 229 241 246 251 266 266 252 263 282 278 246 234 181 228 223 244 223 235 235 88 51 1 342 345 351 359 1 358 1 10 20 46 74 89 95 97 91 86 94 100
328 317 260 338 334 327 324 319 276 235 251 239 230 245 225 252 256 229 222 247 203 225 276 244 259 235 211 229 218 216 246 294 89 51 18 354 350 354 355 350 352 351 358 5 16 29 53 79 107 110 106 104 108 126
314 241 330 332 325 318 316 262 245 230 243 231 248 252 257 282 270 255 246 239 167 224 262 286 246 240 253 230 224 230 116 70 37 33 11 15 1 356 353 347 344 346 348 352 352 3 1 30 125 138 129 137 137 140
270 310 317 320 325 316 258 229 249 252 253 250 256 258 225 246 265 257 236 203 200 185 201 241 286 248 247 257 168 110 113 90 119 43 19 11 6 2 357 354 347 343 340 338 330 314 270 287 227 187 159 163 168 175
293 305 312 310 323 309 285 221 242 269 263 282 271 258 255 259 257 256 264 244 237 227 220 215 233 231 238 216 191 180 183 214 285 329 328 339 357 352 344 349 344 349 342 332 328 323 294 246 250 218 218 202 208 176
297 299 292 308 303 279 267 249 250 265 273 314 275 273 265 258 267 250 246 217 207 210 224 224 231 237 254 151 172 149 149 188 246 294 297 332 345 339 337 340 341 339 344 347 342 328 324 271 230 226 214 210 216 231
307 3 324 329 236 237 304 310 278 264 297 281 298 307 291 285 278 281 277 201 216 240 248 249 229 141 125 123 114 121 102 99 343 321 321 318 333 324 327 333 338 336 348 356 356 359 3 342 281 230 221 223 235 255
326 332 297 26 295 220 249 253 290 300 272 274 294 293 288 292 308 356 312 310 20 8 346 342 68 130 126 113 105 94 76 48 47 341 321 329 336 339 339 330 337 345 353 3 360 1 358 358 357 295 228 225 213 191
311 348 72 19 271 262 237 334 266 288 311 329 319 295 282 308 315 322 330 73 58 1 347 1 41 69 91 96 101 79 47 20 10 353 335 330 329 330 329 335 8 5 2 8 2 3 2 358 356 360 22 61 130 143
42 47 33 54 15 306 326 313 314 299 310 326 309 298 297 300 319 286 250 85 28 8 6 8 23 111 123 95 68 51 26 5 357 346 343 334 350 11 19 55 41 34 15 4 5 1 1 1 1 7 8 16 22 205
222 342 8 79 24 346 332 345 343 341 323 330 305 289 334 321 288 286 60 40 23 11 4 358 359 42 28 68 65 51 35 21 11 46 28 20 21 49 60 55 50 37 11 360 359 359 6 5 5 2 4 13 9 1
229 208 191 158 146 166 309 304 320 312 311 287 289 319 315 308 283 36 54 0 350 354 350 353 346 343 41 24 18 17 4 350 325 83 51 36 34 29 19 9 357 7 2 347 336 339 346 349 351 350 345 347 352 348
217 194 164 138 151 161 246 256 278 261 249 255 298 320 316 280 321 78 13 17 337 339 346 346 346 1 26 25 14 358 349 350 345 7 94 71 53 38 20 2 350 344 334 332 328 325 330 332 332 331 328 325 324 327
180 171 179 172 163 171 183 216 225 222 227 222 269 244 260 252 227 87 341 339 332 333 341 0 8 19 36 28 14 3 354 350 339 200 168 103 74 39 16 359 345 342 340 336 332 325 322 322 319 315 314 314 311 312
168 153 140 154 154 181 205 203 224 222 197 192 220 244 252 245 197 227 272 317 322 323 333 345 10 20 61 51 42 34 26 23 39 65 62 30 11 4 356 348 343 341 339 335 333 328 322 314 312 309 304 307 320 315
171 167 144 162 186 210 209 196 221 196 216 252 267 270 270 259 251 232 244 241 235 233 116 56 42 47 50 36 27 29 38 35 31 24 12 9 346 333 335 338 337 337 333 331 329 328 331 329 328 327 324 324 323 324
145 158 148 179 227 214 195 273 276 253 245 252 253 254 257 267 240 226 220 209 197 191 196 194 162 97 61 49 22 1 8 33 3 346 337 317 323 328 332 328 327 329 329 329 329 328 328 324 320 328 328 332 331 327
173 188 175 195 226 170 281 224 260 260 239 238 241 215 206 216 245 212 198 187 192 203 209 208 209 197 148 113 66 337 289 307 322 331 336 328 325 328 326 327 329 331 332 330 330 331 329 328 323 330 328 333 337 336
120 153 190 249 231 211 154 306 254 284 247 250 242 226 224 225 241 197 173 198 203 201 197 195 185 165 160 139 50 357 324 325 325 312 324 321 314 323 322 331 332 331 332 333 335 336 334 332 324 326 331 338 341 343